Flag for Saudi Arabia Weather past 2 weeks in Haql, Saudi Arabia

Now
82 °F

Clear.


Feels Like: 81 °F
Forecast: 71 / 95 °F
Wind: 6 mph from Northeast

Location: Eilat

Current Time: May 25, 2015 at 7:12:18 AM

Latest Report: May 25, 2015 at 5:50 AM


Visibility: 10 mi

Pressure: 29.89 "Hg

Humidity: 30%

Dew point: 48 °F

Location of HaqlLocation

Historic Weather in Haql — Graph

°F

Haql temperature yesterday

Maximum temperature yesterday: 108 °F (at 2:50 PM)
Minimum temperature yesterday: 81 °F (at 6:50 AM)
Average temperature yesterday: 98 °F

Past Weeks' High & Low Weather Summary

 TemperatureHumidityPressure
High109 °F (May 18, 3:50 PM)57% (May 15, 5:50 AM)30.15 "Hg (May 15, 5:50 AM)
Low70 °F (May 15, 5:50 AM)6% (May 17, 3:50 PM)29.68 "Hg (May 10, 4:50 PM)
Average92 °F24%29.86 "Hg
* Reported May 9 10:50 PM — May 24 10:50 PM, Haql, Weather by CustomWeather, © 2015

Note: Actual official high and low records may vary slightly from our data, if they occured in-between our weather recording intervals... More about our weather records

Advertising

Haql weather history for previous 24 hours

 ConditionsComfort  
Time TempWeatherWind HumidityBarometerVisibility
10:50 PM
Sun, May 24
95 °FClear.10 mph13%29.89 "Hg10 mi
9:50 PM93 °FClear.7 mph17%29.89 "Hg10 mi
8:50 PM100 °FClear.13 mph9%29.86 "Hg10 mi
7:50 PM102 °FSunny.15 mph10%29.86 "Hg10 mi
6:50 PM104 °FSunny.16 mph9%29.83 "Hg10 mi
5:50 PM106 °FSunny.18 mph9%29.83 "Hg10 mi
4:50 PM108 °FSunny.17 mph8%29.83 "Hg10 mi
3:50 PM108 °FSunny.18 mph8%29.83 "Hg10 mi
2:50 PM108 °FSunny.15 mph8%29.83 "Hg10 mi
1:50 PM106 °FSunny.6 mph9%29.86 "Hg10 mi
12:50 PM104 °FPassing clouds.6 mph11%29.89 "HgN/A
11:50 AM97 °FSunny.9 mph14%29.92 "Hg10 mi
10:50 AM95 °FSunny.9 mph18%29.95 "Hg10 mi
9:50 AM90 °FSunny.12 mph21%29.98 "Hg10 mi
8:50 AM88 °FSunny.9 mph24%29.95 "Hg10 mi
7:50 AM82 °FSunny.10 mph28%29.95 "Hg10 mi
Weather by CustomWeather, © 2015

See weather overviewHow to use our weather pages